CYOO

Details ICAO CYOO (YOO)
Name OSHAWA
Region Canada
Timezone America/Toronto (UTC-4.0)
Plans Departing 40
Arriving 20
Stats Elevation 459 ft / 140 m (AMSL)
Location 43.922778° -78.895833°
Runways 2
Magnetic Variation 10.855° W
Sunrise 2018-05-22 09:44:22 UTC / 2018-05-22 05:44:22 Local
Sunset 2018-05-23 00:43:01 UTC / 2018-05-22 20:43:01 Local
Advertisement - Login to hide

Runways

ID Width Length Bearing (true) Bearing (mag) Surface Threshold Offset Overrun Length
04 100 ft / 30 m 2,676 ft / 816 m 29.41° 40.26° Asphalt 0 ft / 0 m 0 ft / 0 m
12 100 ft / 30 m 4,019 ft / 1,225 m 109.14° 119.99° Asphalt 0 ft / 0 m 0 ft / 0 m
22 100 ft / 30 m 2,676 ft / 816 m 209.41° 220.26° Asphalt 0 ft / 0 m 0 ft / 0 m
30 100 ft / 30 m 4,019 ft / 1,225 m 289.15° 300.00° Asphalt 0 ft / 0 m 0 ft / 0 m

Approach Navaids

Runway Type Ident Frequency Range Bearing (true) Bearing (mag) Slope Elevation
12 Localiser IOO 111.35 MHz 18 nm / 33 km 109.33° 120.18° - 459 ft / 140 m (AMSL)

Map

Weather


0- 5 10 15 20 25 30 35+ Temperature / ° C

Clouds and Precipitation
Forecast for 2018-05-22 06:00 UTC. Updated 3 hours ago

Ground ~20,000 ft ~40,000 ft Winds

METAR

CYOO 220834Z AUTO 10007KT 9SM OVC070 13/05 A3003 RMK SLP170

TAF

Not found

Frequencies

Recorded 125.67 MHz ATIS
Tower 120.10 MHz MF
Approach 133.40 MHz TORONTO TRML
Ground 118.40 MHz GND
Tower 120.10 MHz TWR
Warning: Do not use this data for real-world aviation or navigation. No guarantee of current accuracy is given.